www.pogodaiklimat.ru

Погода и климат >> Архив погоды >> Кот-д'Ивуар >> Ганьоа


ПОГОДА в Ганьоа

  • Прогноз погоды в Ганьоа
  • Монитор погоды в Ганьоа

АРХИВ ПОГОДЫ в Ганьоа

Время (UTC), дата Ветер
(напр.,м/с)
 
Видим.   Явления Облачность Т
(С)
Тd
(С)
f
(%)
Тe
(С)
Тes
(С)
Комфортность P
(гПа)
Po
(гПа)
Тmin
(С)
Tmax
(С)
R
(мм)
R24
(мм)
S
(см)
00 10.09 С 2 8000 м {гроза} 10/10 400 м
[Sc]
+23.9 +22.9 94 +32 +32 очень
душно
1014.3 991.1
03 10.09 З 2 8000 м 9/9 150 м
[Sc]
+23.3 +22.9 98 +33 +33 очень
душно
1013.0 989.8
06 10.09 С 1 6000 м 10/10 150 м
[Sc]
+23.0 +22.9 99 +32 +32 очень
душно
1013.4 990.1 +22.9 19
09 10.09 ЮЗ 2 8000 м {морось} 9/9 180 м
[Sc]
+25.6 +23.4 88 +35 +36 очень
душно
1015.0 991.9
12 10.09 ЮЗ 2 10 км {морось} 9/9 400 м
[Cu med, cong]
+28.0 +22.9 74 +37 +40 очень
душно
1013.6 990.7 0.1
15 10.09 З 4 10 км 8/8 400 м
[Cu med, cong]
+30.9 +23.5 65 +42 +44 опасность
перегрева
1009.5 986.9
18 10.09 ЮЗ 2 10 км 8/8 400 м
[Cb cap]
+30.0 +23.1 67 +40 +40 очень
душно
1009.4 986.8 +31.5 0.1
21 10.09 Ю 2 8000 м 9/9 400 м
[Sc]
+24.6 +23.1 91 +33 +33 очень
душно
1012.7 987.6
00 11.09 С 2 8000 м 9/9 400 м
[Sc]
+24.1 +22.8 92 +32 +32 очень
душно
1012.9 989.7
03 11.09 ЮЗ 2 8000 м 9/9 400 м
[Sc]
+23.5 +22.5 94 +31 +31 очень
душно
1011.4 988.2
06 11.09 ЮЗ 2 6000 м {морось} 10/10 150 м
[Sc]
+23.4 +22.6 95 +32 +32 очень
душно
1012.0 988.8 +23.4 0.1
09 11.09 З 3 8000 м 9/9 400 м
[Sc]
+25.5 +22.9 86 +34 +35 очень
душно
1013.8 990.7
12 11.09 СЗ 2 10 км 9/9 400 м
[Cu med, cong]
+28.4 +23.2 73 +38 +40 очень
душно
1012.3 989.5
15 11.09 С 2 10 км {дождь} 6/6 400 м
[Cu med, cong]
+31.0 +22.3 60 +40 +45 очень
душно
1009.1 986.5
18 11.09 С 2 10 км {дождь} 4/4 400 м
[Cb cap]
+30.0 +23.6 69 +41 +41 опасность
перегрева
1008.6 986.0 +32.0 0.0
21 11.09 Ю 3 10 км зарница 8/6 400 м
[Cb cap]
+25.0 +23.1 89 +33 +33 очень
душно
1011.9 988.8
00 12.09 С 2 8000 м в посл. час гроза {дождь} 9/9 400 м
[Sc]
+24.0 +23.3 96 +32 +32 очень
душно
1012.6 989.4 4
06 12.09 ЮЗ 2 6000 м слаб. морось 10/10 150 м
[Sc]
+23.9 +23.3 96 +32 +32 очень
душно
1011.4 988.3 +23.5 4
09 12.09 Ю 2 6000 м {морось} 9/9 150 м
[Sc]
+22.5 +24.1 100 +30 +31 очень
душно
1013.5 990.4
12 12.09 ЮЗ 2 8000 м 6/6 400 м
[Cu med, cong]
+30.0 +23.6 69 +41 +50 опасность
перегрева
1011.5 988.8 0.3
15 12.09 Ю 2 10 км 8/8 400 м
[Cb cap]
+32.0 +22.7 58 +42 +44 опасность
перегрева
1008.3 985.8
03 15.09 С 1 6000 м 9/4 400 м
[Sc Ac As]
+23.7 +23.4 98 +32 +32 очень
душно
1011.4 988.2
06 15.09 С 1 6000 м 9/4 400 м
[Sc Ac As]
+23.8 +23.4 98 +32 +32 очень
душно
1012.1 988.9 +23.5 4
09 15.09 З 3 6000 м 10/10 180 м
[Sc]
+25.1 +23.4 90 +34 +34 очень
душно
1013.4 990.3
12 15.09 Ю 2 10 км 9/9 400 м
[Cu med, cong]
+28.8 +24.4 77 +40 +43 очень
душно
1011.9 989.1
15 15.09 З 2 10 км 6/6 400 м
[Cu med, cong]
+31.4 +23.8 64 +43 +48 опасность
перегрева
1008.1 985.6
18 15.09 Ю 4 10 км 8/8 400 м
[Cb cap]
+29.0 +23.7 73 +40 +40 очень
душно
1008.3 986.0 +32.3
21 15.09 Ю 3 10 км гроза без осадков 9/9 400 м
[Cb cap]
+25.3 +23.9 92 +35 +35 очень
душно
1011.6 988.6
00 16.09 ЮЗ 2 8000 м {гроза, дождь} 9/9 180 м
[Sc]
+24.5 +23.3 93 +33 +33 очень
душно
1012.1 989.0 0.7
03 16.09 ЮЗ 2 8000 м 9/9 180 м
[Sc]
+24.0 +23.3 96 +32 +32 очень
душно
1010.8 987.7
06 16.09 ЮВ 1 8000 м 9/6 180 м
[Sc Ac As]
+23.8 +23.4 98 +32 +32 очень
душно
1011.3 988.2 +23.6 0.7
09 16.09 Ю 2 8000 м 9/9 180 м
[Sc]
+25.0 +23.6 92 +34 +35 очень
душно
1012.9 989.8
18 16.09 Ю 2 10 км 8/8 400 м
[Cb cap]
+28.5 +24.3 78 +40 +40 очень
душно
1009.2 986.5 +31.8
21 16.09 ЮЗ 2 8000 м 8/8 400 м
[Cb cap]
+25.5 +23.3 88 +34 +34 очень
душно
1011.4 988.4

 

Местоположение метеостанции Ганьоа (Кот-д'Ивуар): широта 6.13 долгота -5.95 высота над уровнем моря 210 м.

В архиве по умолчанию представлена погода в Ганьоа за последнюю неделю. Архивные данные за месяц целиком и за предыдущие месяцы, начиная с января 2011 года, Вы можете получить, выбрав интересующий диапазон дат из раскрывающегося списка и нажав кнопку "Ввод!".


*Определитесь, кто Вы:
робот инопланетянин человек

Внимание! Время в таблицах - всемирное. Для получения местного времени необходимо прибавить поправку, которая равна 0 ч.

Смотрите также архив погоды в соседних городах и на ближайших метеорологических станциях:

Погода в Далоа (Кот-д'Ивуар) (100 км)
Погода в Ямусукро (Кот-д'Ивуар) (108 км)
Погода в Сассандре (Кот-д'Ивуар) (132 км)
Погода в Димбокро (Кот-д'Ивуар) (150 км)
Погода в Сан-Педро (Кот-д'Ивуар) (172 км)
Погода в Буаке (Кот-д'Ивуар) (203 км)
Погода в Мане (Кот-д'Ивуар) (222 км)
Погода в Абиджане (Кот-д'Ивуар) (244 км)
Погода в Табу (Кот-д'Ивуар) (247 км)
Погода в Адиаке (Кот-д'Ивуар) (307 км)

Пояснения к столбцам:

Ветер - указаны скорость ветра в м/с - средняя за 10 мин, порывы в срок и между сроками (в фигурных скобках) и направление, откуда дует ветер: С - северный, СВ - северо-восточный, В - восточный, ЮВ - юго-восточный, Ю - южный, ЮЗ - юго-западный, З - западный, СЗ - северо-западный.
Видимость - горизонтальная дальность видимости в метрах или километрах. При видимости от 1 до 10 км при отсутствии осадков обычно наблюдается дымка, при ухудшении видимости до 1 км и менее - туман. В сухую погоду видимость может ухудшаться дымом, пылью или мглою.
Явления - указаны атмосферные явления, наблюдавшиеся в срок или в последний час перед сроком; фигурными скобками обозначены явления, наблюдавшиеся между сроками (за 1-3 часа до срока); квадратными скобками обозначены град или гололедные отложения с указанием их диаметра в мм.
Облачность - указаны через наклонную черту общая и нижняя облачность в баллах и высота нижней границы облаков в метрах; квадратными скобками обозначены формы облаков: Ci - перистые, Cs - перисто-слоистые, Cc - перисто-кучевые, Ac - высококучевые, As - высокослоистые, Sc - слоисто-кучевые, Ns - слоисто-дождевые, Cu - кучевые, Cb - кучево-дождевые. Подробнее классификацию облаков см. в Атласе облаков (PDF).
T - Температура воздуха - температура, измеренная на высоте 2 м над землей.
Td - Температура точки росы - температура, при понижении до которой содержащийся в воздухе водяной пар достигнет насыщения.
f - Относительная влажность воздуха - влажноcть воздуха, измеренная на высоте 2 м над землей.
Te - Эффективная температура - температура, которую ощущает одетый по сезону человек в тени. Характеристика душности погоды. При расчете учитывается влияние влажности воздуха и скорости ветра на теплоощущения человека.
Tes - Эффективная температура на солнце - температура, которую ощущает человек, с поправкой на солнечный нагрев. Характеристика знойности погоды. Зависит от высоты солнца над горизонтом, облачности и скорости ветра. Ночью, в пасмурную погоду, а также при ветре 12 м/с и более поправка равна нулю.
P - Атмосферное давление - приведенное к уровню моря атмосферное давление.
Po - Атмосферное давление - измеренное на уровне метеостанции атмосферное давление.
Tmin - Минимальная температура - минимум температуры воздуха на высоте 2 м над землей.
Tmax - Максимальная температура - максимум температуры воздуха на высоте 2 м над землей.
R - Количество осадков - Количество выпавших осадков за период времени, мм. При наведении курсора мыши на число - период времени, за который выпало указанное количество осадков.
R24 - Количество осадков - Количество выпавших осадков за 24 часа, мм.
S - Снежный покров - Высота снежного покрова, см. При наведении курсора мыши на число - состояние снежного покрова и степень покрытия местности в баллах.